291  
ASUS41 KCTP 210410  
RWRCTP  
 
REGIONAL WEATHER ROUNDUP  
NATIONAL WEATHER SERVICE STATE COLLEGE PA  
1100 PM EST THU FEB 20 2020  
 
NOTE: "FAIR" INDICATES FEW OR NO CLOUDS BELOW 12,000 FEET WITH NO  
SIGNIFICANT WEATHER AND/OR S TO VISIBILITY
.  
 
* = STATION THAT DOES NOT REPORT PRECIPITATION /E.G. RAIN...SNOW...ETC/  
THUNDER OR FOG.
 
 
PAZ002>004-007>009-013>016-020>023-029>032-210500-  
WESTERN PENNSYLVANIA  
 
CITY SKY/WX TMP DP RH WIND PRES REMARKS
 
ERIE CLOUDY 23 7 50 NW7 30.55S WCI 15  
MEADVILLE CLOUDY 18 6 59 NW5 30.49S WCI 11  
FRANKLIN CLOUDY 16 7 67 W5 30.49S WCI 9  
NEW CASTLE CLOUDY 19 9 65 N3 30.55S  
BEAVER COUNTY FAIR 17 9 71 NW3 30.52S  
BUTLER FAIR 16 10 77 CALM 30.52R  
PITTSBURGH INT FAIR 18 8 65 N10 30.52S WCI 6  
PITTSBURGH FAIR 19 9 65 N7 30.50R WCI 10  
INDIANA* PTCLDY 18 9 68 CALM 30.52S  
LATROBE FAIR 18 9 68 VRB6 30.51S WCI 9  
WASHINGTON CO* FAIR 17 9 70 N7 30.55R WCI 8  

 
 
PAZ004>006-010>012-017>019-024>028-033>037-041-042-045-046-049>053-210500-  
CENTRAL PENNSYLVANIA  
 
CITY SKY/WX TMP DP RH WIND PRES REMARKS
 
BRADFORD MOCLDY 13 6 74 W6 30.40S WCI 4  
ST MARYS CLOUDY 14 10 85 NW6 30.45 WCI 5  
DUBOIS FAIR 14 6 70 NW5 30.43S WCI 6  
CLEARFIELD MOCLDY 16 6 65 NW5 30.46R WCI 9  
JOHNSTOWN FAIR 15 4 61 N12 30.38R WCI 2  
SOMERSET FAIR 16 5 62 NW6 30.40S WCI 7  
ALTOONA FAIR 20 5 52 N6 30.44R WCI 12  
STATE COLLEGE MOCLDY 19 5 54 N7 30.47R WCI 10  
REEDSVILLE FAIR 23 7 50 N8G14 30.48 WCI 14  
WELLSBORO MOCLDY 14 3 62 W5 30.39S WCI 6  
WILLIAMSPORT FAIR 20 7 57 W5 30.50R WCI 13  
SELINSGROVE FAIR 23 12 62 N8 30.50R WCI 14  
FT INDIANTOWN FAIR 26 7 44 N5 30.46R  
CAPITAL CITY CLOUDY 30 11 45 N9 30.47R  
HARRISBURG FAIR 29 12 49 N7 30.46S  
YORK FAIR 26 15 63 NW6 30.44S  

 
 
PAZ038>040-043-044-047-048-054-055-060>062-067>071-210500-  
EASTERN PENNSYLVANIA  
 
CITY SKY/WX TMP DP RH WIND PRES REMARKS
 
TOWANDA CLEAR 18 12 79 SW3 30.50S  
SCRANTON FAIR 20 7 57 N9 30.45R WCI 9  
MOUNT POCONO FAIR 14 5 67 NW10 30.34S WCI 1  
HAZLETON FAIR 19 9 63 NW5 30.42S WCI 13  
LEHIGHTON NOT AVBL  
ALLENTOWN FAIR 25 9 50 N9 30.46R  
QN CITY/ALNTWN FAIR 27 12 54 N6 30.47S  
QUAKERTOWN* CLEAR 25 9 50 VRB7 30.44S  
PERKASIE* FAIR 25 9 50 N8 30.44S  
DOYLESTOWN FAIR 27 8 44 N9 30.43S  
READING FAIR 26 13 57 N12 30.45R  
LANCASTER FAIR 27 15 61 N6 30.45R  
COATESVILLE FAIR 27 16 63 N9 30.43S  
WEST CHESTER FAIR 30 16 55 N8 30.43S  
POTTSTOWN FAIR 24 12 60 N10 30.46R WCI 14  
BLUE BELL FAIR 28 11 49 N8 30.44S  
NORTH PHILA FAIR 31 9 39 N16 30.46R  
PHILADELPHIA CLOUDY 31 13 47 N13G20 30.44F  

 
 
 
CLICK HERE TO GO TO PREVIOUS BULLETINS.

The Nexlab PA Page Main Text Page